Location: Unspecified
(53.6186°N, 1.3184°W)
Time: 08:26:18
(UTC+01:00)

ISS - Pass Details

Date: 14 September 2017
Orbit: 401 x 407 km, 51.6° (Epoch: 23 September)

Event Time Altitude Azimuth Distance (km) Brightness Sun altitude
Exits shadow 05:09:25 25° 258° (WSW) 864 -2.8 -13.3°
Maximum altitude 05:11:04 57° 188° (S) 487 -3.7 -13.1°
Drops below altitude 10° 05:14:19 10° 109° (ESE) 1,472 -0.3 -12.6°
Sets 05:16:25 0° 105° (ESE) 2,332 0.9 -12.3°
